Temperature
16 16 16 17 17 17 17 17 17 17 17 17 18 17 17 17 17 17 17 17 17 17 17 17 17 17 17 16 16 16 16 16 15 15 15 15 15 15 15 15 15 14 14
16 16 16 17 17 17 17 17 17 17 17 17 17 17 17 17 17 17 17 17 17 17 17 17 17 17 17 16 16 16 16 15 15 15 15 15 15 14 14 14 14 14 14
16 16 16 17 17 17 17 17 17 17 17 17 17 17 17 17 17 17 17 17 17 17 17 17 17 17 16 16 16 16 16 15 15 15 15 15 14 14 14 14 14 14 14
16 16 16 17 17 17 17 17 17 17 17 17 17 17 17 17 17 17 17 17 17 17 17 16 16 16 16 16 16 16 15 15 15 15 15 15 14 14 14 14 14 14 14
16 16 16 16 17 17 17 17 17 17 17 17 17 17 16 16 16 16 16 16 16 16 16 16 16 16 16 16 16 15 15 15 15 15 15 15 14 14 14 14 14 14 13
16 16 16 16 16 16 16 16 16 16 16 16 16 16 16 16 16 16 16 16 16 16 16 16 16 16 16 16 15 15 15 15 15 15 14 14 14 14 14 14 14 14 13
16 16 16 16 16 16 16 16 16 16 16 16 16 16 16 16 16 16 16 16 16 16 16 16 16 16 15 15 15 15 15 15 15 14 14 14 14 14 14 14 14 13 13
16 16 16 16 16 16 16 16 16 16 16 16 16 16 16 16 16 16 16 16 16 16 16 16 15 15 15 15 15 15 15 15 14 14 14 14 14 14 14 14 14 13 13
15 15 15 15 15 15 15 15 15 16 16 16 16 16 16 16 15 16 15 15 15 15 15 15 15 15 15 15 15 15 15 14 14 14 14 14 14 14 14 14 14 13 13
15 15 15 15 15 15 15 15 15 15 15 15 15 15 15 15 15 15 15 15 15 15 15 15 15 15 15 15 14 14 14 14 14 14 14 14 14 13 13 13 13 13 13
14 14 14 14 14 14 14 14 14 14 14 14 14 14 14 14 14 15 15 15 15 15 15 15 15 15 14 14 14 14 14 14 14 14 14 14 13 13 13 13 13 13 13
14 13 13 13 14 13 13 14 14 14 14 14 14 14 14 14 14 14 14 14 14 14 14 14 14 14 14 14 14 14 14 14 14 13 13 14 13 13 13 13 13 13 13
13 13 13 13 13 13 13 13 13 13 13 13 13 13 13 13 13 14 14 14 14 14 14 14 14 14 14 14 14 14 13 13 13 13 13 13 13 13 13 13 13 13 13
13 13 13 13 13 12 12 12 12 13 13 13 13 13 13 13 13 13 13 13 13 13 13 13 13 13 13 13 13 13 13 13 13 13 13 13 13 13 13 13 13 13 13
13 12 12 12 12 12 12 12 12 12 12 12 12 12 12 12 12 12 12 12 12 12 12 13 13 13 13 13 13 13 13 13 13 13 13 13 13 13 13 13 13 13 13
12 12 12 12 12 12 12 12 11 11 12 12 12 12 11 11 12 12 12 12 12 12 12 12 12 12 12 12 12 12 12 12 12 12 12 12 12 12 12 12 12 12 12
12 12 12 11 11 11 11 11 11 11 11 11 11 11 11 11 11 11 11 11 11 11 11 11 11 11 11 11 11 12 12 12 12 12 12 12 12 12 12 12 12 12 12
12 11 11 11 11 11 11 11 11 10 10 10 10 10 10 10 10 10 10 10 10 10 10 10 10 10 11 11 11 11 11 11 12 12 12 12 12 12 12 12 12 12 12
12 11 11 11 11 10 10 10 10 10 10 10 10 9 9 9 9 9 9 9 9 9 9 9 9 9 10 10 10 10 10 10 11 11 11 11 12 12 12 12 12 12 12
11 11 11 10 10 10 10 10 9 9 9 9 9 9 9 9 9 9 9 9 9 9 9 9 8 8 9 9 9 9 10 10 10 10 11 11 11 11 11 11 11 11 11
11 11 10 10 10 10 9 9 9 9 9 9 9 8 8 8 8 8 8 8 8 8 8 8 8 8 8 8 8 8 9 9 10 10 10 10 10 11 11 11 11 11 11
11 11 10 10 10 9 9 9 9 8 8 8 8 8 8 8 8 8 8 8 8 8 7 7 7 7 7 7 7 6 7 8 9 9 9 10 10 10 10 10 10 11 11
10 10 10 10 9 9 9 8 8 8 8 8 8 8 8 8 8 7 7 7 7 7 7 7 7 6 6 6 6 6 6 6 7 8 9 9 9 9 10 10 10 10 10
10 10 10 9 9 9 8 8 8 8 7 7 7 7 7 7 7 7 7 7 7 7 7 7 6 6 6 6 6 6 6 6 6 6 7 8 8 9 9 9 9 10 10
10 10 9 9 9 9 8 8 7 7 7 7 7 7 7 7 7 7 7 6 6 6 6 6 6 6 6 5 5 5 5 5 5 5 6 7 8 8 8 9 9 9 9
10 9 9 9 9 8 8 8 7 7 7 6 6 6 6 6 6 6 6 6 6 6 6 6 6 6 5 5 5 5 5 5 5 5 5 6 6 7 8 8 8 9 9
Wind_Speed
1 1 7 8 8 8 8 8 8 8 7 7 7 6 7 7 7 6 6 7 7 7 7 6 7 7 7 8 8 8 8 9 10 10 10 11 11 11 11 11 11 10 12
4 4 8 9 9 9 8 8 8 7 7 6 6 6 5 5 5 5 5 5 5 6 6 5 6 6 7 8 8 8 8 9 9 9 9 9 10 10 10 11 10 9 12
5 6 7 8 8 9 9 8 7 7 6 6 5 5 4 4 4 4 4 4 4 5 5 5 5 6 6 7 7 7 8 8 8 8 8 7 8 9 10 10 10 11 11
6 6 7 8 8 8 8 8 8 6 6 5 5 4 3 3 2 2 3 3 4 4 4 4 5 5 6 6 6 7 7 8 8 8 7 7 7 9 10 10 10 10 11
6 6 7 8 8 8 8 8 8 7 5 5 4 3 3 2 2 1 2 2 3 4 4 5 5 5 6 7 7 7 7 7 7 7 6 7 7 9 9 10 10 10 11
5 6 8 9 8 8 7 7 7 7 6 5 4 3 2 2 1 1 1 1 2 3 4 5 5 5 7 7 8 7 7 7 6 5 6 7 8 10 10 11 11 11 11
5 5 7 8 8 7 7 7 7 6 6 5 5 4 3 2 1 1 0 1 2 3 4 4 5 6 7 8 8 8 7 7 6 5 6 7 9 11 11 12 12 12 12
6 5 7 8 8 8 7 7 7 7 6 6 6 5 4 4 3 2 2 1 1 2 3 4 5 5 6 7 8 8 8 8 7 6 6 8 10 11 11 12 13 13 12
6 5 6 7 7 7 7 7 7 8 8 7 7 7 6 5 5 4 4 3 2 2 2 3 4 5 6 7 7 8 9 10 7 6 7 8 10 12 12 13 13 13 13
6 5 4 6 6 6 6 7 7 8 8 8 9 9 8 6 6 5 5 4 3 3 3 3 4 5 6 7 7 7 8 8 7 7 8 9 12 13 13 13 14 14 15
5 4 3 4 5 5 5 6 6 7 8 8 8 9 8 7 6 5 6 5 5 4 4 4 4 4 5 7 7 7 7 6 7 7 8 11 14 14 14 14 14 15 15
3 2 2 3 4 5 5 5 5 6 6 6 7 7 7 6 6 6 6 6 6 6 5 5 5 4 4 4 5 6 5 6 6 7 9 12 15 16 16 16 15 15 16
3 2 2 3 3 4 3 4 4 5 5 6 6 7 7 6 5 5 4 5 5 5 4 5 4 3 3 3 3 4 5 6 6 6 9 13 16 17 17 17 17 17 16
3 2 2 2 3 3 3 3 3 3 3 4 5 6 5 3 3 3 2 3 3 3 3 3 2 3 3 3 4 4 5 5 6 7 9 13 16 17 18 18 17 18 18
4 4 3 3 3 2 2 2 2 2 2 3 4 5 4 2 2 2 2 2 2 3 2 2 2 3 3 4 4 4 5 6 7 8 8 13 16 17 19 19 19 19 18
5 5 4 3 2 2 2 1 1 1 2 3 3 4 4 3 1 2 2 2 2 2 2 2 3 3 3 3 4 5 5 6 7 8 8 11 15 16 19 20 20 19 19
6 5 5 4 3 2 1 1 1 1 2 2 3 4 4 3 2 1 2 3 2 3 2 2 3 2 3 4 5 5 5 5 6 8 8 9 11 15 17 19 20 20 19
6 6 5 4 3 2 1 0 1 1 1 2 3 4 4 4 3 1 2 3 3 3 2 2 2 3 3 4 5 5 5 5 7 7 8 8 9 10 14 17 19 20 20
7 6 5 4 4 3 2 1 1 1 2 2 3 3 4 5 4 2 2 3 3 2 2 3 2 3 4 4 5 5 5 5 6 7 7 9 9 10 10 14 16 18 19
6 6 5 4 3 2 1 0 1 2 2 3 3 4 5 5 5 3 3 3 3 2 3 3 3 3 4 4 6 6 6 6 6 7 8 7 8 9 10 10 11 13 17
5 5 5 4 3 2 1 1 1 3 3 3 4 5 6 5 5 4 3 3 3 4 4 4 3 4 4 3 3 5 6 6 6 6 6 6 7 9 9 10 10 10 11
6 6 5 5 4 3 3 3 3 3 4 4 4 5 6 6 6 5 4 4 4 4 5 4 3 3 3 2 2 3 4 4 4 5 5 6 7 6 7 9 10 11 10
6 6 6 6 5 4 4 2 1 1 2 3 4 4 5 7 7 6 6 5 5 5 5 5 5 4 4 4 3 3 2 4 5 4 5 6 6 6 6 7 10 11 11
6 6 6 6 5 4 4 3 3 3 4 5 5 5 6 7 7 8 7 6 6 5 6 6 6 5 5 5 4 4 5 4 4 4 4 5 6 7 7 7 8 10 11
5 5 5 5 5 5 5 5 5 5 6 5 5 6 6 6 7 8 8 7 7 6 7 7 7 6 5 6 5 5 5 5 5 6 8 6 5 6 7 7 7 8 10
4 4 4 4 5 5 5 5 6 7 7 7 7 7 6 6 6 8 8 7 8 7 8 8 8 8 8 8 7 6 6 5 5 5 7 8 7 6 7 6 7 7 8
Wind_Direction
263 57 85 81 78 84 85 89 89 89 90 91 95 101 104 109 113 117 121 125 128 131 132 132 134 135 136 133 131 134 132 132 130 130 128 127 126 125 123 118 114 109 114
157 99 90 84 79 78 81 85 90 91 90 90 93 98 105 111 118 123 132 138 141 142 145 143 141 137 140 139 139 139 138 137 135 134 131 129 131 132 128 126 123 121 120
123 101 93 86 83 80 77 78 81 86 88 88 89 96 104 114 126 136 142 150 155 156 157 155 146 144 143 142 146 147 147 147 145 143 140 133 139 140 135 134 133 130 128
116 102 95 88 84 81 78 74 72 73 78 82 84 89 98 109 126 149 161 166 170 173 173 170 159 161 162 160 158 158 158 158 158 157 150 148 150 150 146 145 143 139 137
103 100 97 91 84 79 76 73 68 65 65 68 73 78 89 99 114 140 180 185 189 196 194 187 176 175 179 177 172 171 166 163 165 166 159 162 164 164 160 156 152 147 146
102 97 96 92 83 76 70 69 67 60 55 55 60 64 71 75 90 110 206 205 211 214 208 200 194 188 190 188 184 184 179 173 163 162 168 171 172 174 170 162 159 156 154
113 94 93 92 83 75 68 65 61 57 50 43 41 44 47 39 25 16 347 249 239 228 216 215 211 203 199 199 196 195 194 186 169 167 174 180 182 182 178 171 169 165 162
119 96 85 87 79 73 67 63 57 51 45 41 34 31 32 33 30 26 8 340 274 249 240 232 224 217 211 207 207 205 201 192 184 185 184 187 189 189 187 180 175 173 173
96 89 72 69 69 67 63 59 56 49 43 38 35 28 26 28 24 23 18 8 350 296 269 251 239 231 223 218 215 213 209 202 185 189 196 195 195 196 193 187 184 182 179
78 77 70 59 55 53 53 54 49 44 40 38 35 30 26 23 20 18 13 11 1 334 308 283 264 247 236 228 223 218 210 202 195 195 198 202 203 202 200 196 193 190 185
70 66 71 62 52 44 46 42 39 40 35 33 31 30 27 19 16 15 8 5 359 349 329 310 290 279 260 241 232 220 205 199 199 202 204 208 210 210 209 204 200 197 193
102 87 81 74 57 45 39 34 31 34 31 30 27 26 23 21 17 18 9 6 359 352 343 327 313 295 279 257 246 228 205 202 203 209 215 217 217 218 216 211 206 204 201
150 121 92 97 78 63 40 34 29 23 24 24 25 25 24 23 17 16 14 3 357 355 350 334 325 311 286 256 243 230 215 205 211 217 221 222 223 224 222 217 209 209 207
145 140 114 95 82 69 58 36 32 23 16 14 12 21 27 19 8 3 9 360 3 354 345 341 322 312 293 272 252 240 230 219 220 221 226 226 227 228 229 225 217 214 212
159 164 159 132 106 79 65 28 25 9 6 4 8 14 23 19 349 339 340 352 351 352 345 333 321 311 298 278 263 256 250 236 232 227 229 230 229 231 232 231 225 220 217
174 175 171 152 136 102 80 42 358 353 351 359 357 352 9 14 354 339 320 311 318 324 318 302 308 296 285 285 279 269 260 246 240 235 234 232 231 233 236 236 232 226 222
181 176 173 167 148 128 114 31 3 339 348 334 331 334 338 347 344 330 315 305 292 309 310 307 306 307 306 299 287 278 268 257 249 241 236 232 230 233 236 239 237 231 227
174 175 182 170 157 157 153 214 312 327 321 304 315 321 320 319 319 306 291 293 295 303 297 294 297 305 298 292 287 280 276 266 259 245 238 233 228 230 233 237 239 235 231
171 171 172 169 170 176 181 215 274 296 281 279 289 294 300 299 292 271 255 266 287 278 277 287 299 294 292 293 286 281 277 271 263 256 246 238 232 229 230 234 236 236 233
164 163 166 171 179 176 170 303 313 300 281 277 268 265 275 283 280 267 250 255 261 266 269 272 281 288 282 283 292 290 280 274 264 253 247 242 237 235 232 233 232 234 233
158 161 170 174 188 174 186 229 260 269 271 272 262 257 260 267 270 251 255 253 248 247 248 254 270 279 288 296 302 302 294 271 260 255 248 244 244 242 236 232 230 229 233
174 177 181 188 196 199 207 220 226 240 253 254 260 260 256 257 260 256 243 248 249 251 252 249 251 253 275 287 290 309 302 304 278 262 254 248 248 242 240 239 235 230 230
186 191 194 201 206 215 216 224 277 293 296 280 272 266 258 257 256 248 240 242 246 240 241 242 237 235 259 268 236 225 263 269 303 274 256 253 251 246 245 240 238 236 232
201 201 199 206 215 223 214 212 230 248 260 258 257 258 265 256 254 249 241 239 240 240 241 241 240 234 234 257 259 239 244 253 272 289 281 261 258 254 249 248 240 239 236
197 198 206 212 223 228 223 221 230 247 252 261 265 266 265 259 251 246 239 238 238 240 242 240 241 236 230 241 249 257 261 256 252 262 278 279 273 258 250 242 235 235 239
205 208 211 219 237 237 234 234 232 244 254 265 269 265 266 263 259 249 243 240 238 240 242 243 238 234 235 240 245 247 247 245 246 251 263 269 272 273 260 244 235 231 235
Height
1509 1509 1510 1510 1510 1511 1511 1511 1512 1512 1512 1513 1513 1514 1514 1514 1515 1515 1516 1516 1517 1517 1517 1517 1517 1517 1516 1516 1516 1516 1516 1516 1516 1516 1516 1516 1516 1516 1516 1516 1516 1516 1516
1509 1509 1509 1510 1510 1510 1511 1511 1512 1512 1512 1512 1513 1513 1514 1514 1514 1515 1515 1516 1516 1516 1516 1516 1516 1516 1516 1516 1516 1516 1516 1516 1516 1516 1516 1516 1516 1516 1516 1516 1516 1516 1516
1508 1509 1509 1510 1510 1510 1511 1511 1511 1511 1512 1512 1512 1513 1513 1513 1514 1514 1514 1515 1515 1515 1516 1516 1516 1516 1516 1516 1516 1516 1515 1515 1515 1515 1515 1516 1516 1516 1516 1516 1516 1516 1516
1508 1509 1509 1509 1510 1510 1510 1510 1510 1511 1511 1511 1512 1512 1512 1512 1513 1513 1513 1514 1514 1514 1515 1515 1515 1515 1515 1515 1515 1515 1515 1515 1515 1515 1515 1515 1515 1516 1516 1516 1516 1516 1516
1508 1508 1509 1509 1509 1509 1509 1510 1510 1510 1510 1510 1511 1511 1511 1511 1512 1512 1512 1512 1512 1513 1513 1513 1514 1514 1514 1514 1514 1514 1514 1514 1514 1514 1514 1514 1515 1515 1515 1515 1515 1515 1515
1507 1508 1508 1508 1508 1508 1509 1509 1509 1509 1509 1509 1509 1509 1510 1510 1510 1510 1510 1511 1511 1511 1511 1512 1512 1512 1512 1512 1512 1513 1513 1513 1513 1513 1513 1513 1514 1514 1514 1514 1515 1515 1515
1506 1507 1507 1507 1507 1507 1507 1507 1507 1507 1507 1507 1508 1508 1508 1508 1508 1508 1508 1509 1509 1509 1509 1510 1510 1510 1510 1511 1511 1511 1511 1511 1511 1511 1512 1512 1512 1513 1513 1513 1514 1514 1514
1505 1506 1506 1506 1506 1506 1506 1506 1506 1506 1506 1506 1506 1506 1506 1506 1506 1506 1506 1507 1507 1507 1507 1507 1508 1508 1508 1508 1509 1509 1509 1509 1509 1510 1510 1510 1511 1512 1512 1512 1512 1512 1512
1504 1504 1505 1505 1505 1505 1504 1504 1504 1504 1504 1504 1504 1504 1504 1504 1504 1504 1504 1504 1504 1504 1505 1505 1505 1505 1506 1506 1506 1506 1507 1507 1507 1508 1508 1508 1509 1510 1510 1510 1510 1511 1511
1503 1503 1503 1503 1503 1503 1503 1503 1502 1502 1502 1502 1502 1502 1502 1502 1502 1502 1502 1502 1502 1502 1502 1502 1502 1503 1503 1503 1503 1504 1504 1505 1505 1505 1505 1506 1506 1507 1508 1508 1508 1509 1509
1502 1502 1502 1502 1502 1502 1502 1501 1501 1501 1500 1500 1500 1500 1500 1500 1499 1499 1499 1499 1499 1499 1499 1500 1499 1500 1500 1500 1500 1501 1501 1501 1502 1502 1503 1503 1504 1504 1505 1505 1506 1506 1507
1500 1500 1501 1501 1500 1500 1500 1500 1499 1499 1499 1499 1498 1498 1498 1497 1497 1497 1497 1497 1497 1496 1496 1496 1496 1496 1497 1497 1497 1497 1498 1498 1499 1499 1499 1500 1501 1501 1502 1502 1503 1503 1504
1498 1499 1499 1499 1499 1499 1498 1498 1498 1497 1497 1497 1496 1496 1496 1495 1495 1495 1494 1494 1494 1493 1493 1493 1493 1493 1493 1493 1493 1493 1494 1494 1495 1495 1496 1497 1497 1498 1499 1499 1499 1500 1500
1496 1497 1497 1497 1497 1497 1497 1496 1496 1495 1495 1494 1494 1494 1493 1493 1492 1492 1492 1491 1490 1490 1490 1490 1489 1489 1489 1489 1489 1490 1490 1490 1491 1491 1492 1493 1493 1494 1495 1495 1495 1496 1497
1494 1495 1495 1495 1495 1495 1495 1494 1494 1493 1493 1492 1492 1491 1491 1490 1490 1489 1489 1488 1487 1487 1486 1486 1486 1485 1485 1485 1485 1485 1486 1486 1487 1487 1487 1488 1489 1489 1490 1491 1491 1492 1493
1492 1492 1493 1493 1493 1493 1493 1492 1491 1491 1490 1489 1489 1488 1488 1487 1487 1486 1486 1485 1484 1483 1483 1483 1482 1482 1481 1481 1481 1481 1481 1482 1482 1482 1483 1483 1484 1484 1485 1486 1487 1487 1488
1489 1490 1490 1491 1491 1491 1490 1490 1489 1488 1488 1487 1486 1485 1485 1484 1484 1483 1482 1482 1481 1480 1480 1479 1479 1478 1477 1477 1476 1476 1476 1476 1477 1477 1477 1478 1478 1479 1480 1481 1481 1482 1483
1486 1487 1488 1488 1488 1488 1488 1487 1487 1486 1485 1484 1483 1482 1482 1481 1481 1480 1479 1479 1478 1477 1476 1475 1474 1474 1473 1472 1471 1471 1471 1471 1471 1472 1472 1472 1473 1473 1474 1475 1476 1477 1478
1483 1484 1484 1485 1485 1485 1485 1484 1484 1483 1482 1481 1480 1479 1478 1478 1477 1476 1476 1475 1475 1474 1473 1472 1470 1470 1469 1467 1467 1466 1466 1466 1466 1466 1466 1466 1467 1468 1469 1469 1470 1471 1472
1480 1481 1481 1482 1482 1482 1481 1481 1480 1480 1479 1478 1476 1475 1474 1474 1474 1473 1472 1472 1471 1470 1469 1468 1467 1467 1466 1464 1463 1461 1461 1460 1460 1460 1460 1461 1461 1462 1463 1463 1464 1465 1467
1477 1477 1478 1478 1478 1478 1478 1477 1476 1475 1475 1474 1473 1472 1471 1470 1470 1469 1468 1467 1467 1466 1465 1465 1464 1463 1462 1461 1459 1456 1455 1455 1454 1454 1455 1455 1455 1455 1456 1457 1458 1459 1460
1473 1474 1475 1475 1475 1475 1474 1473 1473 1472 1470 1470 1469 1468 1467 1466 1465 1464 1463 1463 1462 1462 1461 1461 1460 1458 1458 1458 1456 1453 1450 1449 1448 1449 1449 1449 1449 1450 1450 1451 1452 1453 1454
1469 1470 1471 1471 1471 1471 1471 1470 1469 1468 1466 1465 1464 1463 1463 1462 1461 1460 1459 1458 1458 1457 1456 1455 1455 1454 1453 1454 1453 1453 1450 1445 1444 1442 1443 1443 1443 1443 1443 1444 1445 1446 1447
1466 1467 1468 1468 1468 1467 1467 1466 1464 1463 1461 1460 1460 1458 1458 1457 1456 1455 1455 1454 1453 1452 1451 1450 1450 1449 1449 1448 1448 1448 1447 1445 1443 1438 1437 1437 1438 1437 1437 1437 1438 1439 1441
1463 1464 1464 1464 1464 1464 1463 1462 1461 1459 1457 1456 1455 1453 1453 1452 1451 1450 1450 1448 1447 1446 1446 1445 1445 1444 1443 1443 1443 1442 1441 1440 1439 1437 1433 1431 1431 1432 1432 1432 1432 1433 1434
1460 1461 1461 1461 1460 1460 1459 1457 1456 1455 1453 1451 1450 1448 1447 1446 1445 1444 1444 1442 1441 1440 1440 1439 1438 1437 1437 1437 1437 1436 1435 1434 1433 1432 1430 1427 1426 1425 1426 1426 1425 1426 1428